GW5469 Weather Reports


time (UTC)temp
C
wind
direction
speed
KPH
gust
KPH
rain 1hr
cm
rain 24hr
cm
rain mn
cm
humidity
%
barometer
mb
20260504185749 13 351 19.3 22.5 0.00 0.00 0.00 31 1014.1
20260504185247 13 297 12.9 16.1 0.00 0.00 0.00 32 1014.3
20260504184743 13 315 17.7 24.1 0.00 0.00 0.00 32 1014.4
20260504184238 12 343 8.0 12.9 0.00 0.00 0.00 33 1014.4
20260504183734 12 326 12.9 16.1 0.00 0.00 0.00 33 1014.1
20260504183232 12 319 22.5 29.0 0.00 0.00 0.00 33 1014.4
20260504182730 13 336 22.5 27.4 0.00 0.00 0.00 33 1014.2
20260504182226 13 350 17.7 17.7 0.00 0.00 0.00 33 1014.4
20260504181724 12 6 9.7 14.5 0.00 0.00 0.00 35 1014.4
20260504181221 13 307 20.9 27.4 0.00 0.00 0.00 35 1014.4
20260504180720 13 309 19.3 24.1 0.00 0.00 0.00 35 1014.0
20260504180219 13 343 12.9 14.5 0.00 0.00 0.00 36 1014.1
20260504175716 13 321 16.1 20.9 0.00 0.00 0.00 35 1014.2
20260504175212 12 305 24.1 27.4 0.00 0.00 0.00 35 1014.1
20260504174711 12 319 14.5 16.1 0.00 0.00 0.00 37 1014.3
20260504174208 12 319 14.5 17.7 0.00 0.00 0.00 36 1014.2
20260504173704 13 310 14.5 17.7 0.00 0.00 0.00 34 1014.3
20260504173202 12 301 14.5 17.7 0.00 0.00 0.00 41 1014.3
20260504172658 12 282 17.7 22.5 0.00 0.00 0.00 42 1014.3
20260504172154 12 313 16.1 20.9 0.00 0.00 0.00 41 1014.4
20260504171651 13 291 11.3 12.9 0.00 0.00 0.00 40 1014.4
20260504171148 13 291 16.1 17.7 0.00 0.00 0.00 40 1014.2
20260504170644 12 321 19.3 24.1 0.00 0.00 0.00 40 1014.5
20260504170142 12 316 11.3 12.9 0.00 0.00 0.00 40 1014.3
20260504151028 10 283 9.7 14.5 0.00 0.00 0.00 51 1014.7
20260504150525 10 282 14.5 16.1 0.00 0.00 0.00 50 1014.6
20260504140956 8 267 4.8 4.8 0.00 0.00 0.00 59 1015.1
20260504140453 8 254 6.4 6.4 0.00 0.00 0.00 59 1014.9
20260504130417 7 277 3.2 3.2 0.00 0.00 0.00 62 1014.8
20260504110304 7 305 1.6 3.2 0.00 0.00 0.00 61 1015.2
20260504100222 8 51 4.8 4.8 0.00 0.00 0.00 59 1015.5
20260504081615 10 51 14.5 20.9 0.00 0.00 0.00 48 1014.7
20260504081111 10 35 20.9 25.7 0.00 0.00 0.00 47 1014.3
20260504080608 10 53 17.7 24.1 0.00 0.00 0.00 47 1014.4
20260504080104 10 27 17.7 22.5 0.00 0.00 0.00 45 1013.8
20260504050421 13 10 6.4 6.4 0.00 0.00 0.00 37 1008.7
20260504045918 13 0 8.0 9.7 0.00 0.00 0.00 37 1008.7
20260504045413 13 18 9.7 11.3 0.00 0.00 0.00 37 1008.6
20260504044910 13 27 6.4 6.4 0.00 0.00 0.00 36 1008.4
20260504044408 14 29 8.0 9.7 0.00 0.00 0.00 35 1008.5
20260504043905 14 14 8.0 9.7 0.00 0.00 0.00 35 1008.4
20260504043401 14 36 9.7 11.3 0.00 0.00 0.00 36 1008.0
20260504042859 14 11 8.0 9.7 0.00 0.00 0.00 36 1007.9
20260504042355 13 16 6.4 6.4 0.00 0.00 0.00 37 1007.8
20260504041852 13 30 4.8 4.8 0.00 0.00 0.00 38 1007.7
20260504041348 15 49 4.8 6.4 0.00 0.00 0.00 38 1007.6
20260504040844 15 34 9.7 11.3 0.00 0.00 0.00 34 1007.6
20260504040342 15 32 8.0 11.3 0.00 0.00 0.00 34 1007.3
20260504035837 15 47 11.3 12.9 0.00 0.00 0.00 32 1007.3
20260504035336 15 4 9.7 11.3 0.00 0.00 0.00 31 1007.4
20260504034832 16 29 9.7 11.3 0.00 0.00 0.00 31 1006.9
20260504034330 15 33 12.9 14.5 0.00 0.00 0.00 30 1007.1
20260504033826 14 21 6.4 9.7 0.00 0.00 0.00 32 1007.2
20260504033325 12 282 1.6 3.2 0.00 0.00 0.00 35 1006.7
20260504032821 12 327 3.2 3.2 0.00 0.00 0.00 34 1006.6
20260504032318 12 250 1.6 1.6 0.00 0.00 0.00 35 1006.4
20260504031815 12 243 3.2 3.2 0.00 0.00 0.00 35 1006.4
20260504031312 13 246 3.2 3.2 0.00 0.00 0.00 35 1006.2
20260504030808 14 285 1.6 1.6 0.00 0.00 0.00 31 1006.1
20260504030306 15 290 0.0 1.6 0.00 0.00 0.00 30 1006.1
20260504025801 15 294 1.6 1.6 0.00 0.00 0.00 29 1005.7
20260504025259 15 332 0.0 0.0 0.00 0.00 0.00 28 1006.0
20260504024755 16 49 1.6 3.2 0.00 0.00 0.00 27 1005.7
20260504024252 16 42 0.0 0.0 0.00 0.00 0.00 28 1006.0
20260504023749 16 317 0.0 0.0 0.00 0.00 0.00 29 1005.6
20260504023245 17 331 0.0 0.0 0.00 0.00 0.00 26 1005.7
20260504022741 17 343 3.2 3.2 0.00 0.00 0.00 25 1005.6
20260504022238 18 333 1.6 3.2 0.00 0.00 0.00 25 1005.7
20260504021735 18 357 3.2 3.2 0.00 0.00 0.00 24 1005.6
20260504021232 19 335 1.6 1.6 0.00 0.00 0.00 23 1005.5
20260504020729 19 354 3.2 3.2 0.00 0.00 0.00 23 1005.5
20260504020225 20 10 4.8 4.8 0.00 0.00 0.00 22 1005.4
20260504015722 21 10 6.4 6.4 0.00 0.00 0.00 21 1005.5
20260504015218 21 6 9.7 11.3 0.00 0.00 0.00 20 1005.4
20260504014714 22 351 6.4 9.7 0.00 0.00 0.00 20 1005.6
20260504014211 22 343 6.4 6.4 0.00 0.00 0.00 20 1005.4
20260504013709 22 344 6.4 9.7 0.00 0.00 0.00 19 1005.4
20260504013206 22 341 8.0 9.7 0.00 0.00 0.00 19 1005.6
20260504012702 22 17 11.3 12.9 0.00 0.00 0.00 18 1005.2
20260504012200 23 8 8.0 11.3 0.00 0.00 0.00 18 1005.5
20260504011657 23 6 9.7 14.5 0.00 0.00 0.00 18 1005.5
20260504011153 23 329 11.3 12.9 0.00 0.00 0.00 17 1005.4
20260504010649 24 309 6.4 6.4 0.00 0.00 0.00 17 1005.3
20260504010145 24 328 9.7 11.3 0.00 0.00 0.00 17 1005.3
20260504005642 24 339 11.3 12.9 0.00 0.00 0.00 17 1005.4
20260504005139 24 285 9.7 11.3 0.00 0.00 0.00 16 1005.5
20260504004637 25 308 4.8 4.8 0.00 0.00 0.00 17 1005.7
20260504004134 24 309 8.0 11.3 0.00 0.00 0.00 16 1005.8
20260504003630 24 315 14.5 22.5 0.00 0.00 0.00 17 1005.8
20260504003127 24 307 11.3 14.5 0.00 0.00 0.00 17 1005.7
20260504002624 25 300 9.7 11.3 0.00 0.00 0.00 16 1006.0
20260504002121 25 315 8.0 9.7 0.00 0.00 0.00 16 1006.0
20260504001619 25 318 9.7 11.3 0.00 0.00 0.00 16 1006.0
20260504001114 24 307 8.0 9.7 0.00 0.00 0.00 16 1006.1
20260504000612 24 303 4.8 6.4 0.00 0.00 0.00 17 1006.0
20260504000110 24 323 6.4 9.7 0.00 0.00 0.00 16 1006.1
20260503235608 25 333 14.5 16.1 0.00 0.00 0.00 16 1006.2
20260503235104 25 313 12.9 14.5 0.00 0.00 0.00 16 1006.2
20260503234602 25 296 12.9 16.1 0.00 0.00 0.00 16 1006.1
20260503234100 25 327 16.1 16.1 0.00 0.00 0.00 16 1006.2
20260503233556 25 322 8.0 9.7 0.00 0.00 0.00 15 1006.3
20260503233052 24 307 8.0 9.7 0.00 0.00 0.00 16 1006.4
20260503232549 24 259 1.6 1.6 0.00 0.00 0.00 16 1006.3
20260503232047 25 271 16.1 24.1 0.00 0.00 0.00 15 1006.5
20260503231545 25 255 8.0 9.7 0.00 0.00 0.00 15 1006.4
20260503231041 24 306 9.7 11.3 0.00 0.00 0.00 16 1006.3
20260503230537 24 270 8.0 9.7 0.00 0.00 0.00 16 1006.5
20260503230035 25 303 12.9 16.1 0.00 0.00 0.00 15 1006.4
20260503225532 24 302 16.1 20.9 0.00 0.00 0.00 15 1006.5
20260503225027 25 289 14.5 17.7 0.00 0.00 0.00 15 1006.6
20260503224525 25 285 9.7 12.9 0.00 0.00 0.00 16 1006.7
20260503224022 24 280 6.4 9.7 0.00 0.00 0.00 15 1006.8
20260503223520 24 296 17.7 24.1 0.00 0.00 0.00 15 1006.8
20260503223015 24 301 16.1 20.9 0.00 0.00 0.00 15 1006.7
20260503222514 24 339 3.2 3.2 0.00 0.00 0.00 15 1006.9
20260503222012 24 336 12.9 16.1 0.00 0.00 0.00 15 1007.1
20260503221510 24 309 17.7 20.9 0.00 0.00 0.00 15 1007.2
20260503221007 25 303 6.4 9.7 0.00 0.00 0.00 16 1007.1
20260503220503 25 310 11.3 17.7 0.00 0.00 0.00 15 1007.2
20260503215959 23 336 6.4 9.7 0.00 0.00 0.00 15 1007.2
20260503215457 24 314 17.7 25.7 0.00 0.00 0.00 16 1007.3
20260503214954 24 292 16.1 22.5 0.00 0.00 0.00 15 1007.7
20260503214452 23 291 12.9 17.7 0.00 0.00 0.00 16 1007.5
20260503213949 23 282 19.3 27.4 0.00 0.00 0.00 15 1007.5
20260503213447 23 273 6.4 9.7 0.00 0.00 0.00 15 1007.8
20260503212943 23 290 6.4 6.4 0.00 0.00 0.00 15 1007.7
20260503212441 23 281 1.6 3.2 0.00 0.00 0.00 15 1007.9
20260503211938 23 284 11.3 12.9 0.00 0.00 0.00 16 1008.0
20260503211435 24 257 9.7 12.9 0.00 0.00 0.00 16 1008.0
20260503210930 23 301 11.3 12.9 0.00 0.00 0.00 16 1008.3
20260503210427 23 310 12.9 20.9 0.00 0.00 0.00 16 1008.4
20260503205922 23 265 11.3 12.9 0.00 0.00 0.00 16 1008.0
20260503205420 23 274 11.3 12.9 0.00 0.00 0.00 16 1008.5
20260503204915 23 301 9.7 12.9 0.00 0.00 0.00 16 1008.4
20260503204413 23 313 3.2 4.8 0.00 0.00 0.00 17 1008.5
20260503203910 23 2 9.7 12.9 0.00 0.00 0.00 17 1008.6
20260503203407 23 292 9.7 11.3 0.00 0.00 0.00 16 1008.7
20260503202904 22 296 14.5 17.7 0.00 0.00 0.00 17 1008.8
20260503202402 23 307 11.3 14.5 0.00 0.00 0.00 18 1008.9
20260503201900 23 305 14.5 17.7 0.00 0.00 0.00 18 1008.8
20260503201357 22 304 9.7 12.9 0.00 0.00 0.00 18 1008.8
20260503200855 23 314 11.3 12.9 0.00 0.00 0.00 18 1009.1
20260503200350 22 288 12.9 14.5 0.00 0.00 0.00 17 1008.9
20260503195848 23 309 12.9 14.5 0.00 0.00 0.00 18 1009.2
20260503195344 22 309 11.3 12.9 0.00 0.00 0.00 19 1009.2
20260503194841 22 266 3.2 4.8 0.00 0.00 0.00 19 1009.2
20260503194337 22 245 17.7 20.9 0.00 0.00 0.00 18 1009.4
20260503193834 22 305 14.5 17.7 0.00 0.00 0.00 18 1009.7
20260503193330 22 282 16.1 20.9 0.00 0.00 0.00 18 1009.5
20260503192826 22 320 11.3 12.9 0.00 0.00 0.00 20 1009.5
20260503192321 22 274 20.9 27.4 0.00 0.00 0.00 19 1009.7
20260503191818 22 341 16.1 20.9 0.00 0.00 0.00 19 1009.9
20260503191315 22 294 12.9 16.1 0.00 0.00 0.00 20 1009.8
20260503190812 22 324 8.0 11.3 0.00 0.00 0.00 21 1009.9
20260503190309 21 251 11.3 14.5 0.00 0.00 0.00 21 1009.9